Location: ?????
(32.7281°N, 34.9563°E)
Time: 18:53:27
(UTC+00:00)

Cosmos 1340 - Pass Details

Date: 29 October 2020
Orbit: 501 x 504 km, 81.2° (Epoch: 30 November)

Event Time Altitude Azimuth Distance (km) Brightness Sun altitude
Rises 15:49:37 0° 352° (N) 2,609 6.3 -12.7°
Reaches altitude 10° 15:51:45 10° 352° (N) 1,720 5.4 -13.2°
Maximum altitude 15:55:32 89° 264° (W) 510 2.6 -13.9°
Drops below altitude 10° 15:59:17 10° 174° (S) 1,708 5.3 -14.7°
Sets 16:01:24 0° 174° (S) 2,588 6.3 -15.2°
